QPF
0.00 0.00 0.00 0.00 0.00 0.00 0.00 0.00 0.00 0.00 0.00 0.00 0.00 0.00 0.00 0.00 0.00 0.00 0.00 0.00 0.00 0.00 0.00 0.00 0.00 0.00 0.00 0.00 0.00 0.00 0.00 0.00 0.00 0.00 0.00 0.00 0.00 0.00 0.00 0.00 0.00 0.00 0.00
0.00 0.00 0.00 0.00 0.00 0.00 0.00 0.00 0.00 0.00 0.00 0.00 0.00 0.00 0.00 0.00 0.00 0.00 0.00 0.00 0.00 0.00 0.00 0.00 0.00 0.00 0.00 0.00 0.00 0.00 0.00 0.00 0.00 0.00 0.00 0.00 0.00 0.00 0.00 0.00 0.00 0.00 0.00
0.00 0.00 0.00 0.00 0.00 0.00 0.00 0.00 0.00 0.00 0.00 0.00 0.00 0.00 0.00 0.00 0.00 0.00 0.00 0.00 0.00 0.00 0.00 0.00 0.00 0.00 0.00 0.00 0.00 0.00 0.00 0.00 0.00 0.00 0.00 0.00 0.00 0.00 0.00 0.00 0.00 0.00 0.00
0.00 0.00 0.00 0.00 0.00 0.00 0.00 0.00 0.00 0.00 0.00 0.00 0.00 0.00 0.00 0.00 0.00 0.00 0.00 0.00 0.00 0.00 0.00 0.00 0.00 0.00 0.00 0.00 0.00 0.00 0.00 0.00 0.00 0.00 0.00 0.00 0.00 0.00 0.00 0.00 0.00 0.00 0.00
0.00 0.00 0.00 0.00 0.00 0.00 0.00 0.00 0.00 0.00 0.00 0.00 0.00 0.00 0.00 0.00 0.00 0.00 0.00 0.00 0.00 0.00 0.00 0.00 0.00 0.00 0.00 0.00 0.00 0.00 0.00 0.00 0.00 0.00 0.00 0.00 0.00 0.00 0.00 0.00 0.00 0.00 0.00
0.00 0.00 0.00 0.00 0.00 0.00 0.00 0.00 0.00 0.00 0.00 0.00 0.00 0.00 0.00 0.00 0.00 0.00 0.00 0.00 0.00 0.00 0.00 0.00 0.00 0.00 0.00 0.00 0.00 0.00 0.00 0.00 0.00 0.00 0.00 0.00 0.00 0.00 0.00 0.00 0.00 0.00 0.00
0.00 0.00 0.00 0.00 0.00 0.00 0.00 0.00 0.00 0.00 0.00 0.00 0.00 0.00 0.00 0.00 0.00 0.00 0.00 0.00 0.00 0.00 0.00 0.00 0.00 0.00 0.00 0.00 0.00 0.00 0.00 0.00 0.00 0.00 0.00 0.00 0.00 0.00 0.00 0.00 0.00 0.00 0.00
0.00 0.00 0.00 0.00 0.00 0.00 0.00 0.00 0.00 0.00 0.00 0.00 0.00 0.00 0.00 0.00 0.00 0.00 0.00 0.00 0.00 0.00 0.00 0.00 0.00 0.00 0.00 0.00 0.00 0.00 0.00 0.00 0.00 0.00 0.00 0.00 0.00 0.00 0.00 0.00 0.00 0.00 0.00
0.00 0.00 0.00 0.00 0.00 0.00 0.00 0.00 0.00 0.00 0.00 0.00 0.00 0.00 0.00 0.00 0.00 0.00 0.00 0.00 0.00 0.00 0.00 0.00 0.00 0.00 0.00 0.00 0.00 0.01 0.01 0.01 0.01 0.01 0.00 0.00 0.00 0.00 0.00 0.00 0.01 0.01 0.01
0.00 0.00 0.00 0.00 0.00 0.00 0.00 0.00 0.00 0.00 0.00 0.00 0.00 0.00 0.00 0.00 0.00 0.00 0.00 0.00 0.00 0.00 0.00 0.00 0.00 0.00 0.00 0.00 0.00 0.01 0.01 0.01 0.01 0.01 0.01 0.01 0.00 0.00 0.00 0.00 0.01 0.01 0.01
0.00 0.00 0.00 0.00 0.00 0.00 0.00 0.00 0.00 0.00 0.00 0.00 0.00 0.00 0.00 0.00 0.00 0.00 0.00 0.00 0.00 0.00 0.00 0.00 0.00 0.00 0.00 0.00 0.00 0.00 0.00 0.00 0.01 0.01 0.02 0.02 0.02 0.01 0.01 0.01 0.02 0.02 0.03
0.00 0.00 0.00 0.00 0.00 0.00 0.00 0.00 0.00 0.00 0.00 0.00 0.00 0.00 0.00 0.00 0.00 0.00 0.00 0.00 0.00 0.00 0.00 0.00 0.00 0.00 0.00 0.00 0.00 0.00 0.00 0.00 0.00 0.01 0.02 0.03 0.04 0.04 0.03 0.03 0.03 0.03 0.03
0.00 0.00 0.00 0.00 0.00 0.00 0.00 0.00 0.00 0.00 0.00 0.00 0.00 0.00 0.00 0.00 0.00 0.00 0.00 0.00 0.00 0.00 0.00 0.00 0.00 0.00 0.00 0.00 0.00 0.00 0.00 0.00 0.00 0.00 0.01 0.02 0.04 0.05 0.04 0.04 0.04 0.04 0.05
0.00 0.00 0.00 0.00 0.00 0.00 0.00 0.00 0.00 0.00 0.00 0.00 0.00 0.00 0.00 0.00 0.00 0.00 0.00 0.00 0.00 0.00 0.00 0.00 0.00 0.00 0.00 0.00 0.00 0.00 0.00 0.00 0.00 0.00 0.01 0.01 0.02 0.02 0.03 0.04 0.05 0.07 0.08
0.00 0.00 0.00 0.00 0.00 0.00 0.00 0.00 0.00 0.00 0.00 0.00 0.00 0.00 0.00 0.00 0.00 0.00 0.00 0.00 0.00 0.00 0.00 0.00 0.00 0.00 0.00 0.00 0.00 0.00 0.00 0.00 0.00 0.00 0.00 0.00 0.01 0.01 0.02 0.04 0.08 0.12 0.14
0.00 0.00 0.00 0.00 0.00 0.00 0.00 0.00 0.00 0.00 0.00 0.00 0.00 0.00 0.00 0.00 0.00 0.00 0.00 0.00 0.00 0.00 0.00 0.00 0.00 0.00 0.00 0.00 0.00 0.00 0.00 0.00 0.00 0.00 0.00 0.00 0.00 0.01 0.02 0.05 0.12 0.20 0.25
0.00 0.00 0.00 0.00 0.00 0.00 0.00 0.00 0.00 0.00 0.00 0.00 0.00 0.00 0.00 0.00 0.00 0.00 0.00 0.00 0.00 0.00 0.00 0.00 0.00 0.00 0.00 0.00 0.00 0.00 0.00 0.00 0.00 0.00 0.00 0.00 0.01 0.01 0.02 0.05 0.11 0.18 0.22
0.00 0.00 0.00 0.00 0.00 0.00 0.00 0.00 0.00 0.00 0.00 0.00 0.00 0.00 0.00 0.00 0.00 0.00 0.00 0.00 0.00 0.00 0.00 0.00 0.00 0.00 0.00 0.00 0.00 0.00 0.00 0.00 0.00 0.00 0.01 0.01 0.01 0.01 0.03 0.06 0.09 0.10 0.11
0.00 0.00 0.00 0.00 0.00 0.00 0.00 0.00 0.00 0.00 0.00 0.00 0.00 0.00 0.00 0.00 0.00 0.00 0.00 0.00 0.00 0.00 0.00 0.00 0.00 0.00 0.00 0.00 0.00 0.00 0.00 0.00 0.00 0.00 0.01 0.01 0.01 0.02 0.04 0.09 0.13 0.13 0.11
0.00 0.00 0.00 0.00 0.00 0.00 0.00 0.00 0.00 0.00 0.00 0.00 0.00 0.00 0.00 0.00 0.00 0.00 0.00 0.00 0.00 0.00 0.00 0.00 0.00 0.00 0.00 0.00 0.00 0.01 0.01 0.01 0.01 0.01 0.01 0.01 0.02 0.03 0.06 0.11 0.16 0.18 0.14
0.00 0.00 0.00 0.00 0.00 0.00 0.00 0.00 0.00 0.00 0.00 0.00 0.00 0.00 0.00 0.00 0.00 0.00 0.00 0.00 0.00 0.00 0.00 0.00 0.00 0.00 0.00 0.00 0.00 0.01 0.02 0.02 0.02 0.02 0.01 0.01 0.03 0.05 0.08 0.10 0.14 0.18 0.17
0.00 0.00 0.00 0.00 0.00 0.00 0.00 0.00 0.00 0.00 0.00 0.00 0.00 0.00 0.00 0.00 0.00 0.00 0.00 0.00 0.00 0.00 0.00 0.00 0.00 0.00 0.00 0.00 0.00 0.00 0.01 0.01 0.02 0.01 0.01 0.01 0.03 0.04 0.06 0.08 0.12 0.19 0.19
0.00 0.00 0.00 0.00 0.00 0.00 0.00 0.00 0.00 0.00 0.00 0.00 0.00 0.00 0.00 0.00 0.00 0.00 0.00 0.00 0.00 0.00 0.00 0.00 0.00 0.00 0.00 0.00 0.00 0.00 0.00 0.00 0.00 0.01 0.01 0.02 0.03 0.04 0.05 0.08 0.12 0.12 0.09
0.00 0.00 0.00 0.00 0.00 0.00 0.00 0.00 0.00 0.00 0.00 0.00 0.00 0.00 0.00 0.00 0.00 0.00 0.00 0.00 0.00 0.00 0.00 0.00 0.00 0.00 0.00 0.00 0.00 0.00 0.00 0.00 0.00 0.00 0.01 0.02 0.03 0.04 0.05 0.09 0.09 0.06 0.07
0.00 0.00 0.00 0.00 0.00 0.00 0.00 0.00 0.00 0.00 0.00 0.00 0.00 0.00 0.00 0.00 0.00 0.00 0.00 0.00 0.00 0.00 0.00 0.00 0.00 0.00 0.00 0.00 0.00 0.00 0.00 0.00 0.01 0.01 0.01 0.02 0.03 0.03 0.05 0.08 0.08 0.07 0.10
0.00 0.00 0.00 0.00 0.00 0.00 0.00 0.00 0.00 0.00 0.00 0.00 0.00 0.00 0.00 0.00 0.00 0.00 0.00 0.00 0.00 0.00 0.00 0.00 0.00 0.00 0.00 0.00 0.00 0.00 0.00 0.00 0.02 0.04 0.03 0.04 0.05 0.07 0.10 0.10 0.10 0.10 0.10
MSLP
1008.11 1007.90 1007.66 1007.39 1007.12 1006.89 1006.73 1006.67 1006.75 1006.95 1007.26 1007.63 1008.03 1008.39 1008.68 1008.88 1009.00 1009.04 1009.04 1009.03 1009.06 1009.14 1009.28 1009.49 1009.74 1010.03 1010.31 1010.58 1010.80 1010.98 1011.10 1011.17 1011.18 1011.13 1011.04 1010.90 1010.71 1010.49 1010.25 1010.00 1009.77 1009.58 1009.44
1008.92 1008.69 1008.39 1008.02 1007.63 1007.26 1006.95 1006.77 1006.73 1006.84 1007.07 1007.39 1007.73 1008.05 1008.31 1008.46 1008.52 1008.50 1008.43 1008.37 1008.35 1008.39 1008.51 1008.71 1008.96 1009.25 1009.54 1009.81 1010.04 1010.22 1010.35 1010.42 1010.44 1010.41 1010.33 1010.19 1010.01 1009.78 1009.52 1009.24 1008.97 1008.74 1008.56
1009.73 1009.52 1009.20 1008.78 1008.31 1007.83 1007.41 1007.10 1006.95 1006.96 1007.11 1007.35 1007.63 1007.89 1008.08 1008.17 1008.15 1008.06 1007.92 1007.79 1007.70 1007.68 1007.76 1007.92 1008.14 1008.40 1008.66 1008.91 1009.12 1009.28 1009.41 1009.48 1009.52 1009.52 1009.47 1009.37 1009.22 1009.01 1008.75 1008.46 1008.17 1007.90 1007.68
1010.41 1010.26 1009.96 1009.55 1009.04 1008.50 1008.01 1007.62 1007.37 1007.29 1007.35 1007.52 1007.72 1007.90 1008.01 1008.02 1007.93 1007.75 1007.54 1007.32 1007.15 1007.07 1007.07 1007.16 1007.31 1007.51 1007.71 1007.90 1008.07 1008.21 1008.32 1008.40 1008.45 1008.49 1008.48 1008.43 1008.33 1008.16 1007.93 1007.65 1007.35 1007.06 1006.80
1010.87 1010.80 1010.58 1010.21 1009.73 1009.19 1008.67 1008.24 1007.93 1007.78 1007.77 1007.85 1007.97 1008.07 1008.10 1008.03 1007.85 1007.59 1007.29 1007.00 1006.75 1006.57 1006.48 1006.48 1006.54 1006.64 1006.76 1006.88 1006.98 1007.06 1007.14 1007.22 1007.29 1007.35 1007.40 1007.40 1007.36 1007.24 1007.05 1006.80 1006.50 1006.20 1005.92
1011.07 1011.11 1010.99 1010.72 1010.30 1009.82 1009.32 1008.88 1008.55 1008.35 1008.28 1008.28 1008.32 1008.34 1008.30 1008.15 1007.90 1007.57 1007.20 1006.83 1006.50 1006.23 1006.05 1005.94 1005.90 1005.89 1005.90 1005.91 1005.93 1005.94 1005.97 1006.02 1006.09 1006.17 1006.25 1006.31 1006.31 1006.25 1006.11 1005.89 1005.62 1005.31 1005.01
1011.03 1011.19 1011.19 1011.03 1010.72 1010.32 1009.88 1009.47 1009.15 1008.93 1008.81 1008.75 1008.73 1008.68 1008.56 1008.35 1008.05 1007.67 1007.24 1006.82 1006.42 1006.08 1005.81 1005.60 1005.44 1005.31 1005.20 1005.10 1005.01 1004.93 1004.89 1004.88 1004.92 1004.99 1005.08 1005.16 1005.21 1005.19 1005.09 1004.91 1004.66 1004.37 1004.07
1010.84 1011.09 1011.21 1011.16 1010.97 1010.66 1010.31 1009.95 1009.66 1009.43 1009.29 1009.19 1009.11 1009.01 1008.84 1008.59 1008.25 1007.84 1007.39 1006.93 1006.49 1006.10 1005.75 1005.45 1005.19 1004.95 1004.71 1004.49 1004.28 1004.09 1003.95 1003.86 1003.83 1003.86 1003.93 1004.00 1004.05 1004.05 1003.98 1003.84 1003.62 1003.36 1003.07
1010.58 1010.90 1011.10 1011.15 1011.06 1010.87 1010.60 1010.31 1010.05 1009.84 1009.68 1009.55 1009.44 1009.29 1009.09 1008.82 1008.47 1008.06 1007.61 1007.14 1006.68 1006.25 1005.86 1005.49 1005.13 1004.78 1004.43 1004.08 1003.74 1003.43 1003.17 1002.98 1002.86 1002.81 1002.81 1002.83 1002.86 1002.86 1002.79 1002.67 1002.49 1002.26 1002.02
1010.33 1010.68 1010.94 1011.07 1011.07 1010.95 1010.77 1010.54 1010.33 1010.13 1009.97 1009.83 1009.69 1009.52 1009.31 1009.03 1008.69 1008.29 1007.85 1007.40 1006.95 1006.50 1006.07 1005.64 1005.21 1004.77 1004.31 1003.84 1003.38 1002.95 1002.56 1002.24 1002.01 1001.84 1001.75 1001.70 1001.66 1001.61 1001.54 1001.42 1001.27 1001.08 1000.89
1010.14 1010.50 1010.79 1010.97 1011.03 1010.99 1010.87 1010.71 1010.53 1010.36 1010.20 1010.05 1009.90 1009.72 1009.50 1009.22 1008.89 1008.51 1008.10 1007.67 1007.22 1006.77 1006.31 1005.84 1005.35 1004.82 1004.28 1003.71 1003.14 1002.59 1002.08 1001.64 1001.28 1001.00 1000.78 1000.62 1000.50 1000.38 1000.27 1000.13 999.99 999.83 999.69
1010.07 1010.41 1010.71 1010.92 1011.03 1011.04 1010.98 1010.87 1010.72 1010.57 1010.42 1010.27 1010.10 1009.91 1009.69 1009.41 1009.09 1008.73 1008.33 1007.91 1007.47 1007.01 1006.52 1006.01 1005.46 1004.87 1004.25 1003.61 1002.95 1002.31 1001.71 1001.16 1000.68 1000.28 999.94 999.66 999.43 999.22 999.03 998.85 998.69 998.55 998.44
1010.10 1010.44 1010.74 1010.98 1011.12 1011.18 1011.16 1011.09 1010.98 1010.85 1010.71 1010.55 1010.37 1010.16 1009.92 1009.64 1009.31 1008.95 1008.55 1008.11 1007.65 1007.17 1006.65 1006.09 1005.49 1004.86 1004.19 1003.49 1002.78 1002.08 1001.41 1000.79 1000.22 999.71 999.26 998.86 998.51 998.19 997.90 997.65 997.43 997.26 997.15
1010.26 1010.60 1010.92 1011.17 1011.34 1011.44 1011.47 1011.44 1011.35 1011.24 1011.09 1010.92 1010.72 1010.49 1010.22 1009.91 1009.56 1009.17 1008.74 1008.27 1007.77 1007.24 1006.67 1006.06 1005.42 1004.75 1004.05 1003.33 1002.60 1001.88 1001.19 1000.52 999.90 999.31 998.77 998.26 997.79 997.35 996.94 996.57 996.26 996.02 995.87
1010.53 1010.89 1011.23 1011.51 1011.72 1011.86 1011.92 1011.91 1011.85 1011.74 1011.59 1011.40 1011.18 1010.91 1010.60 1010.24 1009.84 1009.39 1008.91 1008.38 1007.82 1007.22 1006.59 1005.94 1005.26 1004.56 1003.85 1003.13 1002.42 1001.72 1001.03 1000.37 999.72 999.09 998.48 997.88 997.29 996.71 996.17 995.67 995.23 994.88 994.63
1010.91 1011.31 1011.68 1011.99 1012.24 1012.40 1012.49 1012.51 1012.45 1012.34 1012.17 1011.96 1011.69 1011.38 1011.01 1010.60 1010.13 1009.61 1009.05 1008.45 1007.81 1007.14 1006.45 1005.75 1005.03 1004.32 1003.62 1002.93 1002.25 1001.59 1000.95 1000.31 999.67 999.02 998.35 997.67 996.97 996.27 995.58 994.93 994.35 993.86 993.49
1011.40 1011.84 1012.25 1012.59 1012.86 1013.04 1013.14 1013.16 1013.10 1012.97 1012.78 1012.52 1012.21 1011.84 1011.42 1010.94 1010.40 1009.81 1009.17 1008.48 1007.77 1007.03 1006.28 1005.54 1004.80 1004.09 1003.41 1002.75 1002.13 1001.52 1000.93 1000.32 999.70 999.04 998.33 997.58 996.78 995.96 995.13 994.33 993.60 992.97 992.48
1011.98 1012.46 1012.89 1013.25 1013.52 1013.70 1013.80 1013.80 1013.71 1013.55 1013.32 1013.02 1012.66 1012.24 1011.75 1011.21 1010.60 1009.94 1009.23 1008.49 1007.71 1006.92 1006.13 1005.35 1004.61 1003.91 1003.25 1002.63 1002.05 1001.49 1000.93 1000.36 999.74 999.06 998.31 997.49 996.61 995.68 994.74 993.82 992.96 992.21 991.61
1012.63 1013.13 1013.56 1013.91 1014.16 1014.32 1014.38 1014.34 1014.22 1014.01 1013.73 1013.38 1012.97 1012.50 1011.96 1011.37 1010.71 1010.00 1009.25 1008.46 1007.64 1006.82 1006.01 1005.22 1004.48 1003.79 1003.15 1002.56 1002.01 1001.47 1000.93 1000.35 999.72 999.00 998.20 997.32 996.35 995.34 994.31 993.31 992.38 991.56 990.90
1013.31 1013.79 1014.20 1014.51 1014.71 1014.82 1014.82 1014.73 1014.55 1014.30 1013.97 1013.57 1013.12 1012.61 1012.04 1011.41 1010.72 1009.99 1009.21 1008.40 1007.57 1006.74 1005.93 1005.15 1004.41 1003.74 1003.11 1002.53 1001.98 1001.44 1000.87 1000.26 999.57 998.80 997.93 996.97 995.94 994.87 993.79 992.75 991.80 990.98 990.33
1013.97 1014.42 1014.76 1015.01 1015.14 1015.17 1015.11 1014.95 1014.71 1014.40 1014.03 1013.60 1013.11 1012.57 1011.98 1011.34 1010.65 1009.91 1009.13 1008.32 1007.50 1006.69 1005.89 1005.12 1004.40 1003.73 1003.11 1002.52 1001.94 1001.35 1000.73 1000.04 999.27 998.41 997.46 996.43 995.34 994.24 993.15 992.14 991.23 990.47 989.90
1014.58 1014.94 1015.21 1015.37 1015.42 1015.37 1015.23 1015.01 1014.72 1014.36 1013.95 1013.49 1012.99 1012.44 1011.84 1011.20 1010.52 1009.79 1009.03 1008.24 1007.44 1006.65 1005.87 1005.13 1004.42 1003.75 1003.11 1002.49 1001.87 1001.21 1000.50 999.72 998.84 997.88 996.84 995.74 994.61 993.50 992.44 991.49 990.67 990.03 989.59
1015.07 1015.35 1015.52 1015.59 1015.55 1015.43 1015.22 1014.95 1014.61 1014.22 1013.78 1013.31 1012.80 1012.25 1011.67 1011.04 1010.37 1009.66 1008.91 1008.15 1007.38 1006.61 1005.86 1005.13 1004.43 1003.76 1003.11 1002.44 1001.76 1001.02 1000.22 999.33 998.35 997.28 996.15 994.99 993.84 992.73 991.73 990.87 990.18 989.69 989.40
1015.43 1015.61 1015.69 1015.67 1015.56 1015.37 1015.12 1014.80 1014.43 1014.03 1013.59 1013.11 1012.61 1012.07 1011.50 1010.88 1010.23 1009.53 1008.81 1008.06 1007.31 1006.56 1005.83 1005.12 1004.43 1003.75 1003.07 1002.37 1001.63 1000.83 999.93 998.95 997.87 996.72 995.52 994.32 993.15 992.07 991.13 990.37 989.81 989.47 989.35
1015.64 1015.73 1015.73 1015.64 1015.47 1015.24 1014.95 1014.61 1014.23 1013.82 1013.39 1012.93 1012.44 1011.92 1011.36 1010.75 1010.11 1009.42 1008.71 1007.97 1007.23 1006.50 1005.77 1005.07 1004.39 1003.71 1003.02 1002.29 1001.51 1000.66 999.70 998.65 997.51 996.30 995.07 993.84 992.68 991.63 990.75 990.08 989.63 989.42 989.43
1015.72 1015.73 1015.66 1015.52 1015.31 1015.05 1014.74 1014.39 1014.01 1013.61 1013.20 1012.75 1012.28 1011.78 1011.23 1010.64 1010.00 1009.32 1008.60 1007.87 1007.13 1006.40 1005.68 1004.98 1004.30 1003.63 1002.94 1002.22 1001.43 1000.55 999.58 998.50 997.34 996.12 994.87 993.65 992.51 991.50 990.67 990.06 989.69 989.56 989.65
Thickness
5752 5757 5760 5762 5763 5764 5764 5764 5762 5760 5756 5749 5742 5737 5733 5733 5732 5732 5730 5727 5723 5720 5717 5715 5710 5705 5701 5697 5693 5687 5681 5677 5671 5664 5661 5661 5661 5661 5658 5654 5650 5647 5642
5741 5745 5748 5748 5749 5750 5752 5753 5755 5755 5753 5749 5743 5738 5733 5731 5730 5728 5727 5725 5720 5716 5713 5710 5706 5701 5697 5692 5688 5682 5676 5672 5665 5658 5650 5648 5652 5656 5654 5650 5648 5645 5639
5732 5734 5736 5736 5737 5738 5740 5743 5744 5746 5747 5745 5739 5734 5729 5725 5722 5721 5720 5717 5713 5709 5707 5705 5701 5697 5693 5688 5684 5677 5671 5666 5661 5656 5646 5639 5642 5645 5653 5652 5648 5642 5635
5726 5726 5727 5727 5727 5730 5733 5735 5737 5738 5738 5737 5732 5726 5719 5715 5715 5713 5713 5713 5711 5708 5705 5700 5695 5691 5686 5683 5679 5673 5668 5661 5656 5650 5646 5643 5639 5633 5636 5640 5641 5637 5631
5719 5719 5718 5718 5719 5721 5723 5726 5727 5727 5727 5725 5722 5719 5715 5713 5712 5710 5709 5709 5709 5708 5705 5699 5692 5687 5684 5681 5676 5670 5664 5659 5653 5646 5640 5636 5632 5630 5624 5624 5627 5625 5624
5713 5711 5711 5712 5712 5713 5714 5714 5714 5713 5713 5712 5710 5707 5704 5702 5700 5698 5697 5697 5698 5698 5696 5692 5686 5681 5676 5673 5668 5663 5658 5654 5649 5644 5638 5631 5627 5626 5620 5615 5616 5614 5614
5704 5702 5701 5702 5702 5703 5703 5703 5702 5700 5699 5698 5696 5694 5692 5690 5687 5685 5684 5683 5682 5681 5681 5679 5677 5673 5668 5664 5659 5654 5651 5648 5643 5639 5635 5630 5626 5622 5615 5610 5611 5608 5608
5697 5695 5693 5692 5692 5693 5692 5691 5689 5687 5686 5684 5682 5680 5679 5676 5673 5671 5669 5667 5665 5664 5664 5663 5662 5662 5659 5655 5650 5645 5643 5640 5637 5633 5630 5625 5623 5618 5612 5607 5601 5598 5600
5692 5688 5686 5685 5685 5684 5682 5680 5677 5675 5673 5671 5669 5666 5663 5661 5658 5656 5654 5652 5650 5650 5649 5647 5645 5645 5645 5644 5642 5638 5636 5633 5630 5627 5623 5619 5617 5613 5608 5602 5596 5589 5589
5684 5681 5678 5676 5676 5674 5672 5669 5665 5661 5659 5656 5653 5650 5647 5645 5643 5640 5637 5635 5634 5634 5633 5633 5630 5628 5628 5628 5629 5628 5628 5625 5623 5620 5616 5613 5611 5606 5600 5596 5592 5587 5583
5675 5671 5669 5668 5666 5663 5660 5655 5650 5646 5642 5638 5635 5632 5630 5628 5626 5622 5620 5618 5617 5617 5617 5617 5616 5615 5613 5612 5611 5612 5612 5611 5610 5608 5606 5606 5604 5599 5594 5589 5586 5583 5578
5668 5663 5660 5657 5653 5649 5645 5640 5634 5629 5625 5622 5618 5616 5613 5611 5608 5605 5603 5601 5599 5598 5598 5598 5597 5597 5597 5596 5594 5594 5594 5593 5591 5591 5591 5591 5591 5590 5588 5585 5582 5580 5577
5657 5652 5648 5644 5639 5634 5630 5624 5618 5613 5609 5606 5602 5599 5596 5593 5590 5587 5584 5582 5580 5580 5579 5579 5579 5579 5579 5580 5579 5578 5578 5577 5575 5574 5573 5575 5576 5578 5580 5580 5579 5577 5575
5646 5641 5634 5629 5624 5619 5613 5607 5601 5596 5592 5588 5584 5581 5579 5576 5572 5569 5566 5564 5562 5560 5560 5560 5560 5560 5561 5561 5561 5560 5560 5559 5559 5559 5559 5561 5562 5564 5566 5568 5570 5571 5569
5635 5628 5621 5614 5608 5600 5593 5585 5579 5574 5570 5567 5563 5561 5558 5555 5551 5548 5546 5544 5543 5541 5540 5540 5540 5540 5540 5540 5537 5536 5538 5540 5543 5545 5545 5547 5547 5548 5549 5551 5557 5559 5561
5623 5615 5607 5597 5587 5578 5570 5563 5556 5551 5547 5543 5541 5539 5535 5531 5527 5525 5523 5522 5522 5521 5521 5520 5520 5520 5520 5517 5514 5512 5515 5519 5522 5526 5531 5533 5534 5536 5537 5539 5543 5547 5550
5608 5597 5585 5573 5563 5555 5549 5541 5534 5529 5525 5520 5517 5512 5507 5504 5502 5501 5501 5500 5499 5500 5500 5500 5499 5498 5497 5495 5493 5491 5492 5496 5500 5505 5510 5516 5520 5520 5523 5528 5534 5540 5543
5582 5570 5559 5549 5540 5532 5524 5515 5508 5503 5499 5494 5489 5484 5482 5480 5479 5478 5477 5477 5477 5477 5476 5477 5478 5478 5479 5477 5475 5474 5475 5478 5481 5485 5489 5494 5501 5504 5505 5511 5520 5529 5536
5554 5543 5533 5523 5514 5506 5497 5488 5482 5476 5472 5468 5463 5460 5458 5458 5458 5457 5456 5455 5456 5456 5456 5458 5459 5461 5463 5461 5458 5455 5455 5459 5463 5468 5470 5472 5478 5485 5486 5490 5501 5514 5524
5533 5521 5509 5498 5488 5480 5472 5464 5457 5452 5448 5445 5442 5439 5437 5436 5437 5437 5436 5435 5435 5436 5438 5441 5442 5443 5443 5442 5438 5434 5433 5437 5442 5447 5451 5453 5457 5464 5469 5473 5483 5498 5511
5508 5497 5485 5474 5463 5456 5449 5442 5436 5432 5430 5428 5424 5421 5419 5418 5418 5417 5416 5415 5415 5416 5418 5421 5423 5422 5420 5418 5414 5410 5408 5409 5415 5421 5429 5437 5443 5450 5457 5463 5472 5486 5497
5483 5472 5460 5450 5442 5436 5430 5424 5419 5416 5414 5410 5406 5404 5402 5400 5400 5397 5396 5394 5392 5393 5394 5395 5396 5395 5392 5389 5387 5387 5387 5386 5388 5398 5409 5419 5430 5440 5451 5461 5472 5483 5491
5457 5447 5437 5430 5423 5417 5411 5405 5402 5399 5396 5392 5389 5387 5386 5383 5380 5377 5374 5372 5369 5367 5366 5364 5363 5364 5364 5363 5363 5366 5370 5371 5375 5385 5396 5408 5422 5435 5448 5460 5469 5480 5484
5433 5425 5418 5411 5405 5399 5393 5388 5385 5383 5380 5377 5375 5372 5370 5368 5363 5357 5352 5347 5343 5338 5335 5332 5331 5333 5336 5339 5342 5348 5354 5360 5367 5377 5392 5408 5422 5433 5443 5452 5461 5468 5471
5414 5408 5401 5395 5391 5386 5380 5374 5371 5368 5365 5361 5357 5354 5350 5345 5341 5336 5329 5322 5317 5309 5306 5304 5303 5306 5312 5318 5324 5328 5338 5346 5357 5371 5389 5404 5414 5426 5434 5437 5441 5449 5456
5400 5393 5387 5381 5376 5371 5366 5361 5356 5351 5346 5342 5337 5332 5328 5322 5316 5311 5309 5305 5296 5293 5289 5288 5287 5290 5294 5300 5307 5314 5324 5336 5349 5364 5377 5388 5398 5408 5417 5424 5429 5435 5440